Pawtucket, RI

1:53 PM EDT on May 27, 2018 (GMT -0400)
North Central State

Weather History for KSFZ - January, 2012

Change the Weather History Date:

Tuesday, January 3, 2012

  Actual Average Record
Temperature  
Mean Temperature 21 °F -  
Max Temperature 30 °F 35 °F 62 °F (1998)
Min Temperature 12 °F 22 °F 3 °F (2008)
Degree Days  
Heating Degree Days 44    
Moisture  
Dew Point 9 °F    
Average Humidity 56    
Maximum Humidity 80    
Minimum Humidity 40    
Precipitation  
Precipitation 0.00 in - - ()
Sea Level Pressure  
Sea Level Pressure 29.81 in    
Wind  
Wind Speed 7 mph (NW)    
Max Wind Speed 20 mph    
Max Gust Speed 26 mph    
Visibility 10 miles    
Events      
Averages and records for this station are not official NWS values.
T = Trace of Precipitation, MM = Missing Value Source: NWS Daily Summary

Daily Weather History Graph

Daily Weather History Graph

Search for Another Location

Airport or City:

Astronomy

Jan. 03, 2012 Rise Set
Actual Time 7:13 AM EST 4:26 PM EST
Civil Twilight 6:42 AM EST 4:58 PM EST
Nautical Twilight 6:07 AM EST 5:33 PM EST
Astronomical Twilight 5:33 AM EST 6:07 PM EST
Moon 12:14 PM EST (1/3) 2:00 AM EST (1/3)
Length of Visible Light 10h 15m
Length of Day
9h 12m
Waxing Gibbous, 72% of the Moon is Illuminated
Jan 3
Waxing Gibbous
Jan 9
Full
Jan 16
Last Quarter
Jan 23
New
Jan 30
First Quarter

Hourly Weather History & Observations

Time (EST) Temp. Windchill Dew Point Humidity Pressure Visibility Wind Dir Wind Speed Gust Speed Precip Events Conditions
12:15 AM 30.2 °F 25.4 °F 17.6 °F 60% 29.70 in 10.0 mi West 4.6 mph - N/A   Clear
12:55 AM 28.4 °F 24.6 °F 19.4 °F 69% 29.71 in 10.0 mi WSW 3.5 mph - N/A   Clear
1:15 AM 28.4 °F - 17.6 °F 64% 29.71 in 10.0 mi Calm Calm - N/A   Clear
1:35 AM 28.4 °F 24.6 °F 17.6 °F 64% 29.71 in 10.0 mi West 3.5 mph - N/A   Clear
1:55 AM 28.4 °F 24.6 °F 17.6 °F 64% 29.71 in 10.0 mi WSW 3.5 mph - N/A   Clear
2:15 AM 26.6 °F 22.6 °F 17.6 °F 69% 29.71 in 10.0 mi West 3.5 mph - N/A   Clear
2:35 AM 26.6 °F 22.6 °F 17.6 °F 69% 29.71 in 10.0 mi WNW 3.5 mph - N/A   Clear
2:55 AM 26.6 °F - 17.6 °F 69% 29.71 in 10.0 mi Calm Calm - N/A   Clear
3:35 AM 26.6 °F - 17.6 °F 69% 29.70 in 10.0 mi Calm Calm - N/A   Clear
3:55 AM 23.0 °F 18.4 °F 17.6 °F 80% 29.71 in 10.0 mi WSW 3.5 mph - N/A   Clear
4:35 AM 23.0 °F - 17.6 °F 80% 29.72 in 10.0 mi Calm Calm - N/A   Clear
4:55 AM 24.8 °F 20.5 °F 17.6 °F 74% 29.72 in 10.0 mi West 3.5 mph - N/A   Clear
5:15 AM 24.8 °F 20.5 °F 17.6 °F 74% 29.73 in 10.0 mi West 3.5 mph - N/A   Clear
5:35 AM 24.8 °F 17.9 °F 17.6 °F 74% 29.74 in 10.0 mi West 5.8 mph - N/A   Clear
5:55 AM 24.8 °F 19.1 °F 15.8 °F 69% 29.75 in 10.0 mi WNW 4.6 mph - N/A   Clear
6:15 AM 24.8 °F 17.9 °F 15.8 °F 69% 29.75 in 10.0 mi West 5.8 mph - N/A   Clear
6:35 AM 23.0 °F 17.0 °F 15.8 °F 74% 29.76 in 10.0 mi West 4.6 mph - N/A   Clear
7:15 AM 23.0 °F 15.8 °F 14.0 °F 68% 29.76 in 10.0 mi WNW 5.8 mph - N/A   Clear
7:55 AM 24.8 °F 19.1 °F 15.8 °F 69% 29.78 in 10.0 mi NW 4.6 mph - N/A   Clear
8:35 AM 24.8 °F 17.9 °F 15.8 °F 69% 29.80 in 10.0 mi NW 5.8 mph - N/A   Clear
8:55 AM 26.6 °F 16.8 °F 12.2 °F 55% 29.79 in 10.0 mi NNW 10.4 mph - N/A   Scattered Clouds
9:15 AM 26.6 °F 14.3 °F 12.2 °F 55% 29.79 in 10.0 mi NNW 16.1 mph 20.7 mph N/A   Scattered Clouds
9:55 AM 24.8 °F 11.9 °F 10.4 °F 54% 29.78 in 10.0 mi NNW 16.1 mph 19.6 mph N/A   Overcast
10:15 AM 26.6 °F 15.2 °F 10.4 °F 51% 29.79 in 10.0 mi NNW 13.8 mph 18.4 mph N/A   Scattered Clouds
10:35 AM 26.6 °F 16.2 °F 6.8 °F 43% 29.79 in 10.0 mi West 11.5 mph 19.6 mph N/A   Partly Cloudy
10:55 AM 26.6 °F 17.5 °F 8.6 °F 47% 29.80 in 10.0 mi WNW 9.2 mph - N/A   Scattered Clouds
11:35 AM 28.4 °F 18.0 °F 6.8 °F 40% 29.75 in 10.0 mi NNW 12.7 mph - N/A   Scattered Clouds
11:55 AM 26.6 °F 15.7 °F 6.8 °F 43% 29.77 in 10.0 mi North 12.7 mph 20.7 mph N/A   Mostly Cloudy
12:15 PM 24.8 °F 15.3 °F 6.8 °F 46% 29.77 in 10.0 mi NW 9.2 mph 19.6 mph N/A   Scattered Clouds
1:15 PM 26.6 °F 20.0 °F 6.8 °F 43% 29.77 in 10.0 mi NW 5.8 mph 19.6 mph N/A   Partly Cloudy
1:55 PM 26.6 °F 15.7 °F 6.8 °F 43% 29.78 in 10.0 mi NW 12.7 mph 20.7 mph N/A   Mostly Cloudy
2:15 PM 26.6 °F 15.2 °F 8.6 °F 47% 29.77 in 10.0 mi NNW 13.8 mph 19.6 mph N/A   Mostly Cloudy
2:35 PM 26.6 °F 16.2 °F 5.0 °F 40% 29.80 in 10.0 mi NW 11.5 mph 18.4 mph N/A   Scattered Clouds
2:55 PM 24.8 °F 14.0 °F 6.8 °F 46% 29.82 in 10.0 mi NW 11.5 mph 17.3 mph N/A   Mostly Cloudy
3:15 PM 24.8 °F 14.6 °F 6.8 °F 46% 29.83 in 10.0 mi NNW 10.4 mph - N/A   Mostly Cloudy
4:15 PM 21.2 °F 9.5 °F 3.2 °F 46% 29.83 in 10.0 mi NW 11.5 mph - N/A   Clear
4:35 PM 21.2 °F 9.5 °F 3.2 °F 46% 29.85 in 10.0 mi NNW 11.5 mph 17.3 mph N/A   Clear
4:55 PM 21.2 °F 8.9 °F 3.2 °F 46% 29.86 in 10.0 mi NW 12.7 mph 20.7 mph N/A   Clear
5:35 PM 19.4 °F 6.6 °F 3.2 °F 49% 29.89 in 10.0 mi NW 12.7 mph 19.6 mph N/A   Clear
5:55 PM 19.4 °F 6.0 °F 3.2 °F 49% 29.90 in 10.0 mi NW 13.8 mph 23.0 mph N/A   Clear
6:15 PM 19.4 °F 6.6 °F 1.4 °F 46% 29.91 in 10.0 mi NW 12.7 mph 20.7 mph N/A   Clear
7:15 PM 17.6 °F 5.0 °F 1.4 °F 49% 29.95 in 10.0 mi NW 11.5 mph 25.3 mph N/A   Clear
7:35 PM 17.6 °F 3.7 °F 1.4 °F 49% 29.96 in 10.0 mi NNW 13.8 mph 21.9 mph N/A   Clear
7:55 PM 17.6 °F 2.7 °F -0.4 °F 45% 29.96 in 10.0 mi NW 16.1 mph 21.9 mph N/A   Clear
8:35 PM 15.8 °F 0.3 °F -2.2 °F 45% 29.96 in 10.0 mi NNW 16.1 mph 26.5 mph N/A   Clear
8:55 PM 15.8 °F 0.9 °F -0.4 °F 49% 29.96 in 10.0 mi NNW 15.0 mph 23.0 mph N/A   Clear
9:15 PM 15.8 °F 4.2 °F -0.4 °F 49% 29.96 in 10.0 mi NNW 9.2 mph 21.9 mph N/A   Clear
9:35 PM 15.8 °F 0.9 °F -2.2 °F 45% 29.97 in 10.0 mi NNW 15.0 mph 23.0 mph N/A   Clear
10:15 PM 14.0 °F -1.4 °F -2.2 °F 49% 29.96 in 10.0 mi NNW 15.0 mph 23.0 mph N/A   Clear
10:55 PM 14.0 °F -0.8 °F -2.2 °F 49% 29.95 in 10.0 mi NW 13.8 mph 19.6 mph N/A   Clear
11:15 PM 14.0 °F -3.4 °F -2.2 °F 49% 29.95 in 10.0 mi NW 19.6 mph 26.5 mph N/A   Clear
11:35 PM 12.2 °F -3.1 °F -2.2 °F 53% 29.95 in 10.0 mi NW 13.8 mph 20.7 mph N/A   Clear
11:55 PM 12.2 °F -4.3 °F -2.2 °F 53% 29.95 in 10.0 mi NW 16.1 mph 23.0 mph N/A   Clear